Regional Weather Roundup
Issued by NWS

Home | Current Version | Previous Version | Graphics & Text | Print | Product List | Glossary Off
Versions: 1 2 3 4 5 6 7 8 9 10 11 12 13 14 15 16 17 18 19 20 21 22 23 24 25 26 27 28 29 30 31 32 33 34 35 36 37 38 39 40 41 42 43 44 45 46 47 48 49 50

000
ASUS45 KABQ 251210
RWRNM
WEATHER ROUNDUP FOR NEW MEXICO
NATIONAL WEATHER SERVICE ALBUQUERQUE NM
600 AM MDT SAT OCT 25 2014

NOTE: "FAIR" MEANS FEW OR NO CLOUDS BELOW 12,000 FEET AGL WITH NO
       SIGNIFICANT WEATHER OR OBSTRUCTIONS TO VISION.

      THIS PRODUCT IS RELEASED AS TWO VERSIONS.  ONE VERSION NEAR
      THE TOP OF THE HOUR CONTAINING PRELIMINARY DATA FROM ALBUQUERQUE
      AND OTHER STATIONS.  A FINAL VERSION WITH ADDITIONAL DATA IS
      ISSUED ABOUT 10 MINUTES AFTER THE HOUR.

NMZ501-503-504-510>518-251300-
NORTHWEST PLATEAU/NORTHCENTRAL MOUNTAINS

CITY           SKY/WX    TMP DP  RH WIND       PRES   REMARKS
FARMINGTON     CLEAR     41  30  65 E8        30.29S
6HR MIN TEMP:  41; 6HR MAX TEMP:  49;

LOS ALAMOS     CLEAR     51  19  27 CALM      30.38S
SANTA FE       CLEAR     46  23  40 N14       30.33R
6HR MIN TEMP:  45; 6HR MAX TEMP:  49;

TAOS           PTCLDY    30  19  64 N7        30.39S WCI  23
ANGEL FIRE     FAIR      21  18  87 CALM      30.47S

$$
NMZ402-403-502-505>509-251300-
WESTCENTRAL MOUNTAINS/SOUTHWEST MOUNTAINS

CITY           SKY/WX    TMP DP  RH WIND       PRES   REMARKS
GALLUP         PTCLDY    36  30  79 CALM      30.36R
6HR MIN TEMP:  33; 6HR MAX TEMP:  43;

GRANTS         PTCLDY    30  25  80 W8G16     30.38S WCI  23
SILVER CITY    CLEAR     50  39  66 N7        30.29S

$$
NMZ407-409-411-412-251300-
SOUTHERN DESERTS

CITY           SKY/WX    TMP DP  RH WIND       PRES   REMARKS
LORDSBURG      FAIR      46  43  87 CALM      30.22R
DEMING         CLEAR     48  43  82 CALM      30.22S
6HR MIN TEMP:  48; 6HR MAX TEMP:  54;

LAS CRUCES     CLEAR     54  44  67 E5        30.24R
HOLLOMAN AFB   PTCLDY    52  44  74 CALM      30.21R
T OR C         CLEAR     52  43  71 W7        30.24S
6HR MIN TEMP:  52; 6HR MAX TEMP:  60;


$$
NMZ519>523-251300-
CENTRAL VALLEYS/CENTRAL HIGHLANDS

CITY           SKY/WX    TMP DP  RH WIND       PRES   REMARKS
ALBUQUERQUE    CLEAR     51  37  58 CALM      30.29S
6HR MIN TEMP:  51; 6HR MAX TEMP:  62;

DOUBLE EAGLE   CLEAR     43  30  61 CALM      30.31S
MORIARTY ARPT  FAIR      31  24  77 N5        30.34S WCI  26
6HR MIN TEMP:  30; 6HR MAX TEMP:  39;

CLINES CORNERS CLEAR     46  26  45 NW14      30.33S
6HR MIN TEMP:  44; 6HR MAX TEMP:  53;

BELEN          NOT AVBL
SOCORRO        FAIR      47  41  78 W3        30.26S
6HR MIN TEMP:  47; 6HR MAX TEMP:  59;


$$
NMZ524>526-539-540-251300-
SOUTHCENTRAL MOUNTAINS

CITY           SKY/WX    TMP DP  RH WIND       PRES   REMARKS
RUIDOSO        CLEAR     50  36  57 W8        30.37S

$$
NMZ527>531-251300-
NORTHEAST HIGHLANDS/NORTHEAST PLAINS

CITY           SKY/WX    TMP DP  RH WIND       PRES   REMARKS
LAS VEGAS      PTCLDY    42  21  43 NE7       30.31S
6HR MIN TEMP:  41; 6HR MAX TEMP:  52;

RATON          CLEAR     40  29  64 NE6       30.28R
6HR MIN TEMP:  37; 6HR MAX TEMP:  46;

CLAYTON        PTCLDY    56  31  38 W12       30.17F
6HR MIN TEMP:  55; 6HR MAX TEMP:  62;


$$
NMZ532>537-251300-
EASTCENTRAL PLAINS

CITY           SKY/WX    TMP DP  RH WIND       PRES   REMARKS
TUCUMCARI      CLEAR     52  42  69 W7        30.15S
6HR MIN TEMP:  51; 6HR MAX TEMP:  64;

CANNON AFB     CLEAR     54  49  81 SW5       30.19S
6HR MIN TEMP:  54; 6HR MAX TEMP:  61;

CLOVIS AIRPORT CLEAR     48  43  81 W7        30.22S

$$
NMZ028-029-538-251300-
SOUTHEAST PLAINS

CITY           SKY/WX    TMP DP  RH WIND       PRES   REMARKS
ROSWELL        CLEAR     53  48  83 CALM      30.18R
6HR MIN TEMP:  51; 6HR MAX TEMP:  58;

CARLSBAD       CLEAR     51  48  89 W3        30.16R
6HR MIN TEMP:  51; 6HR MAX TEMP:  62;

HOBBS          CLEAR     52  52 100 CALM      30.20  FOG


$$



USA.gov is the U.S. government's official web portal to all federal, state and local government web resources and services.